When you browse on this site, cookies collect data to enhance your experience and personalize the content and advertising you see.
Visit our Privacy Policy to learn more. By continuing to use the site, you agree to this use of cookies and data.
  • In Hungary
  • List of Countries
  • For 7 days
  • Water Temperature
  • Satellite Maps
  • Weather Map
  • News
  • Weather Widgets
  • user-avatar
    Login

    Hourly Weather Skokowa

    Today, 25 May, Saturday

    Time Temperature Precipitation Wind Pressure Humidity
    00:00 +13°C° 0 mm 2 mps 749 mmHg 67%
    01:00 +13°C° 0 mm 2 mps 749 mmHg 68%
    02:00 +12°C° 0 mm 2 mps 749 mmHg 73%
    03:00 +12°C° 0 mm 2 mps 749 mmHg 77%
    04:00 +12°C° 0 mm 2 mps 749 mmHg 81%
    05:00 +12°C° 0 mm 3 mps 749 mmHg 80%
    06:00 +14°C° 0 mm 3 mps 749 mmHg 79%
    07:00 +15°C° 0 mm 4 mps 750 mmHg 76%
    08:00 +18°C° 0.2 mm 4 mps 750 mmHg 73%
    09:00 +19°C° 0.2 mm 4 mps 750 mmHg 70%
    10:00 +20°C° 0.2 mm 4 mps 750 mmHg 67%
    11:00 +21°C° 0.4 mm 4 mps 750 mmHg 64%
    12:00 +21°C° 0.4 mm 4 mps 750 mmHg 62%
    13:00 +22°C° 0.4 mm 3 mps 750 mmHg 59%
    14:00 +21°C° 0.3 mm 3 mps 750 mmHg 59%
    15:00 +21°C° 0.3 mm 3 mps 750 mmHg 58%
    16:00 +21°C° 0.3 mm 3 mps 750 mmHg 58%
    17:00 +20°C° 0.1 mm 2 mps 750 mmHg 64%
    18:00 +19°C° 0.1 mm 2 mps 750 mmHg 70%
    19:00 +17°C° 0.1 mm 2 mps 750 mmHg 76%
    20:00 +16°C° 0 mm 2 mps 750 mmHg 81%
    21:00 +14°C° 0 mm 2 mps 751 mmHg 85%
    22:00 +13°C° 0 mm 2 mps 751 mmHg 89%
    23:00 +12°C° 0 mm 2 mps 751 mmHg 90%

    Tomorrow, 26 May, Sunday

    Time Temperature Precipitation Wind Pressure Humidity
    00:00 +10°C° 0 mm 2 mps 751 mmHg 91%
    01:00 +9°C° 0 mm 2 mps 751 mmHg 92%
    02:00 +9°C° 0 mm 2 mps 751 mmHg 93%
    03:00 +9°C° 0 mm 1 mps 751 mmHg 93%
    04:00 +9°C° 0 mm 1 mps 751 mmHg 94%
    05:00 +9°C° 0 mm 2 mps 751 mmHg 89%
    06:00 +12°C° 0 mm 2 mps 751 mmHg 84%
    07:00 +13°C° 0 mm 2 mps 751 mmHg 79%
    08:00 +14°C° 0 mm 3 mps 751 mmHg 74%
    09:00 +17°C° 0 mm 3 mps 751 mmHg 68%
    10:00 +18°C° 0 mm 4 mps 750 mmHg 62%
    11:00 +19°C° 0 mm 4 mps 750 mmHg 59%
    12:00 +20°C° 0 mm 4 mps 750 mmHg 55%
    13:00 +22°C° 0 mm 5 mps 749 mmHg 52%
    14:00 +22°C° 0 mm 5 mps 749 mmHg 53%
    15:00 +22°C° 0 mm 5 mps 749 mmHg 53%
    16:00 +23°C° 0 mm 5 mps 748 mmHg 53%
    17:00 +21°C° 0 mm 4 mps 748 mmHg 59%
    18:00 +20°C° 0 mm 3 mps 748 mmHg 65%
    19:00 +19°C° 0 mm 2 mps 748 mmHg 71%
    20:00 +18°C° 0 mm 2 mps 748 mmHg 73%
    21:00 +17°C° 0 mm 2 mps 748 mmHg 74%
    22:00 +16°C° 0 mm 2 mps 749 mmHg 76%
    23:00 +16°C° 0 mm 2 mps 749 mmHg 77%

    Day after tomorrow, 27 May, Monday

    Time Temperature Precipitation Wind Pressure Humidity
    00:00 +16°C° 0 mm 2 mps 748 mmHg 78%
    01:00 +15°C° 0 mm 2 mps 748 mmHg 79%
    02:00 +15°C° 0 mm 2 mps 748 mmHg 81%
    03:00 +13°C° 0 mm 3 mps 748 mmHg 84%
    04:00 +13°C° 0 mm 3 mps 747 mmHg 86%
    05:00 +14°C° 0 mm 3 mps 747 mmHg 82%
    06:00 +17°C° 0 mm 4 mps 747 mmHg 77%
    07:00 +19°C° 0 mm 4 mps 747 mmHg 73%
    08:00 +20°C° 0 mm 4 mps 747 mmHg 67%
    09:00 +22°C° 0 mm 5 mps 747 mmHg 62%
    10:00 +23°C° 0 mm 5 mps 747 mmHg 56%
    11:00 +25°C° 0.2 mm 5 mps 747 mmHg 56%
    12:00 +25°C° 0.2 mm 5 mps 747 mmHg 55%
    13:00 +26°C° 0.2 mm 4 mps 747 mmHg 55%
    14:00 +25°C° 0.6 mm 4 mps 746 mmHg 60%
    15:00 +23°C° 0.6 mm 4 mps 746 mmHg 65%
    16:00 +23°C° 0.6 mm 4 mps 746 mmHg 70%
    17:00 +22°C° 1 mm 3 mps 746 mmHg 76%
    18:00 +20°C° 1 mm 2 mps 746 mmHg 82%
    19:00 +19°C° 1 mm 2 mps 746 mmHg 88%
    20:00 +19°C° 0.1 mm 1 mps 746 mmHg 89%
    21:00 +18°C° 0.1 mm 1 mps 747 mmHg 91%
    22:00 +16°C° 0.1 mm 1 mps 747 mmHg 92%
    23:00 +16°C° 0 mm 1 mps 746 mmHg 93%

    28 May, Tuesday

    Time Temperature Precipitation Wind Pressure Humidity
    00:00 +16°C° 0 mm 1 mps 746 mmHg 93%
    01:00 +16°C° 0 mm 1 mps 746 mmHg 94%
    02:00 +16°C° 0.7 mm 1 mps 746 mmHg 95%
    03:00 +15°C° 0.7 mm 1 mps 745 mmHg 96%
    04:00 +15°C° 0.7 mm 2 mps 745 mmHg 97%
    05:00 +15°C° 2.8 mm 2 mps 744 mmHg 97%
    06:00 +16°C° 2.8 mm 2 mps 744 mmHg 97%
    07:00 +16°C° 2.8 mm 2 mps 744 mmHg 97%
    08:00 +16°C° 0.9 mm 2 mps 744 mmHg 96%
    09:00 +16°C° 0.9 mm 3 mps 743 mmHg 95%
    10:00 +17°C° 0.9 mm 3 mps 743 mmHg 94%
    11:00 +18°C° 0.6 mm 3 mps 743 mmHg 91%
    12:00 +18°C° 0.6 mm 3 mps 743 mmHg 88%
    13:00 +19°C° 0.6 mm 4 mps 742 mmHg 85%
    14:00 +18°C° 0.9 mm 4 mps 742 mmHg 88%
    15:00 +16°C° 0.9 mm 5 mps 742 mmHg 90%
    16:00 +15°C° 0.9 mm 6 mps 742 mmHg 93%
    17:00 +13°C° 0.2 mm 6 mps 743 mmHg 93%
    18:00 +11°C° 0.2 mm 6 mps 743 mmHg 93%
    19:00 +10°C° 0.2 mm 6 mps 743 mmHg 93%
    20:00 +10°C° 0.2 mm 6 mps 744 mmHg 93%
    21:00 +10°C° 0.2 mm 5 mps 744 mmHg 94%
    22:00 +10°C° 0.2 mm 5 mps 745 mmHg 94%
    23:00 +10°C° 0.1 mm 5 mps 745 mmHg 94%

    29 May, Wednesday

    Time Temperature Precipitation Wind Pressure Humidity
    00:00 +10°C° 0.1 mm 5 mps 745 mmHg 94%
    01:00 +10°C° 0.1 mm 5 mps 746 mmHg 95%
    02:00 +10°C° 0 mm 5 mps 746 mmHg 95%
    03:00 +11°C° 0 mm 4 mps 746 mmHg 95%
    04:00 +10°C° 0 mm 4 mps 746 mmHg 96%
    05:00 +10°C° 0 mm 4 mps 747 mmHg 94%
    06:00 +10°C° 0 mm 4 mps 747 mmHg 92%
    07:00 +11°C° 0 mm 4 mps 748 mmHg 90%
    08:00 +12°C° 0 mm 4 mps 748 mmHg 83%
    09:00 +13°C° 0 mm 4 mps 749 mmHg 76%
    10:00 +14°C° 0 mm 5 mps 749 mmHg 70%
    11:00 +15°C° 0 mm 5 mps 750 mmHg 67%
    12:00 +16°C° 0 mm 5 mps 750 mmHg 64%
    13:00 +17°C° 0 mm 5 mps 750 mmHg 61%
    14:00 +17°C° 0.1 mm 5 mps 750 mmHg 62%
    15:00 +17°C° 0.1 mm 5 mps 751 mmHg 62%
    16:00 +17°C° 0.1 mm 5 mps 751 mmHg 63%
    17:00 +17°C° 0.1 mm 4 mps 751 mmHg 69%
    18:00 +15°C° 0.1 mm 4 mps 752 mmHg 75%
    19:00 +14°C° 0.1 mm 3 mps 753 mmHg 81%
    20:00 +13°C° 0 mm 3 mps 753 mmHg 81%
    21:00 +12°C° 0 mm 3 mps 754 mmHg 82%
    22:00 +11°C° 0 mm 3 mps 755 mmHg 83%
    23:00 +10°C° 0 mm 3 mps 755 mmHg 81%

    30 May, Thursday

    Time Temperature Precipitation Wind Pressure Humidity
    00:00 +9°C° 0 mm 3 mps 755 mmHg 79%
    01:00 +8°C° 0 mm 3 mps 756 mmHg 77%
    02:00 +8°C° 0 mm 2 mps 756 mmHg 77%
    03:00 +7°C° 0 mm 2 mps 757 mmHg 76%
    04:00 +7°C° 0 mm 2 mps 757 mmHg 76%
    05:00 +8°C° 0 mm 2 mps 757 mmHg 73%
    06:00 +9°C° 0 mm 2 mps 758 mmHg 70%
    07:00 +9°C° 0 mm 2 mps 758 mmHg 68%
    08:00 +12°C° 0 mm 2 mps 758 mmHg 62%
    09:00 +13°C° 0 mm 2 mps 758 mmHg 57%
    10:00 +14°C° 0 mm 2 mps 758 mmHg 51%
    11:00 +16°C° 0 mm 2 mps 758 mmHg 49%
    12:00 +18°C° 0 mm 1 mps 757 mmHg 47%
    13:00 +19°C° 0 mm 1 mps 757 mmHg 45%
    14:00 +17°C° 0 mm 0 mps 757 mmHg 44%
    15:00 +17°C° 0 mm 0 mps 756 mmHg 44%
    16:00 +17°C° 0 mm 0 mps 756 mmHg 44%
    17:00 +18°C° 0 mm 1 mps 756 mmHg 50%
    18:00 +16°C° 0 mm 1 mps 755 mmHg 57%
    19:00 +15°C° 0 mm 1 mps 755 mmHg 63%
    20:00 +14°C° 0 mm 2 mps 755 mmHg 65%
    21:00 +12°C° 0 mm 3 mps 755 mmHg 67%
    22:00 +10°C° 0 mm 3 mps 755 mmHg 69%
    23:00 +10°C° 0 mm 3 mps 754 mmHg 70%
    Show more